STARLINK-36235, 68400

Orbit data source: Space-Track

STARLINK-36235, 68400 is a payload satellite owned by SpaceX/Seattle (US) in SSO that was launched on Thu, 26 Mar 2026 UTC via an FALCON 9 launch vehicle from the Air Force Western Test Range (AFWTR). Payload-class satellites include a variety of spacecraft equipped with specific instruments for various scientific and technological missions. These include communications satellites like Starlink; space stations such as the ISS; scientific satellites like the Hubble; Earth observation satellites from companies like Planet Labs, Umbra, and HawkEye 360; GPS; miniature CubeSats for education and research; and military/defense satellites.

Loading next visibility...
Identifier
68400, 2026-063W
Orbit
SSO
Country
Flag of USUS
Related business
Manufacturer
SpaceX/Seattle
Mission
Operational spacecraft
Bus & Motor
STARLINK V2MO, Unknown motor
Mass
575 kg wet, ~530 kg dry
Launch date (UTC)
2026-03-26 (3 months ago)
Launch vehicle
FALCON 9
Launch site
Air Force Western Test Range (AFWTR)
Object type
Payload
Rocket body
Debris
Shape & HBR
Unknown shape, 17.7 m
Radar Cross Section
Large (>1 m²)

Expand to show TLE details & history
Last TLE update: 6 hours ago

TLE from 6 hours ago
0 STARLINK-36235
1 68400U 26063W   26165.83681623  .00033297  00000-0  10283-2 0  9992
2 68400  97.2866 308.1138 0000468  86.3573 273.7723 15.33471141 12781
Epoch: 2026-06-14T20:05Z
TLE epoch observation values (Epoch: 2026-06-14T20:05:00.922Z)
Latitude
-0.00004°
Longitude
103.72813°
Altitude
468.556 km
Speed
7.632 km/s
True Right ascension
20h 32m 27s
True Declination
0° 00' 00"
Sunlit
Object was in full shadow at epoch
Visualization orbit readout
Latitude
Unknown
Longitude
Unknown
Altitude
Unknown
Speed
Unknown
Apparent Right ascension
Unknown
Apparent Declination
Unknown
Sunlit
N/A
Visualization observer readout
Local Sidereal Time
13:00:40
Azimuth
Unknown
Elevation
Unknown
Doppler factor
Unknown
Orbital elements
Apogee altitude
462.728 km
Perigee altitude
462.088 km
Semi-major axis
6,840.545 km
Eccentricity
0.00005
Inclination
97.2866°
RAAN
308.1138°
Arg. of periapsis
86.3573°
True anomaly
273.76695°
Mean anomaly
273.7723°
Eccentric anomaly
273.76962°
Mean motion
3.83625 °/min
Orbital period
93.84 mins
BSTAR
0.0010283
Loading maneuver chart data...
Computing Atmospheric mass density...
Loading historical data...
Loading historical data...
Loading historical data...
Loading historical data...
Loading historical data...
Loading historical data...
Loading historical data...

Documentation

Showing up to 5 results
|